[[{"header":{"parameterUnit":"m.s-1","parameterCategory":1,"la1":30.2991,"la2":30.254,"lo1":-89.0895,"lo2":-89.0444,"dy":0.0017,"dx":0.0017,"nx":28,"ny":28,"refTime":"2023-08-23T09:00:00:Z","depth":0,"parameterNumber":2,"parameterNumberName":"U-component_of_WINDS"},"data":[0,0,0,0,0,0,0,0,0,0,0,0,0,0,0,0,0,0,0,0,0,0,0,0,0,0,0,0,0,0,0,0,0,0,0,0,0,0,0,0,0,0,0,0,0,0,0,0,0,0,0,0,0,0,0,0,0,0,-2.0251,-2.0251,0,-2.0252,-2.0252,-2.0252,-2.0211,-2.021,-2.0209,-2.0207,-2.0209,-2.021,-2.0211,0,0,0,0,0,0,0,0,0,0,0,0,0,-2.0213,-2.0214,-2.0251,-2.0251,-2.0251,-2.0252,-2.0252,-2.0252,-2.0211,-2.021,-2.0208,-2.0207,-2.0209,-2.021,-2.0211,0,0,0,0,0,0,0,0,0,0,0,0,0,-2.0223,-2.0214,-2.0251,-2.023,-2.0229,-2.0252,-2.0252,-2.0252,-2.0211,-2.021,-2.0208,-2.0206,-2.0208,-2.021,-2.0212,-2.0255,0,0,-2.0217,-2.0217,0,0,0,0,0,0,0,0,-2.0223,-2.0225,-2.0233,-2.0232,-2.023,-2.023,-2.0239,-2.0253,-2.0212,-2.0218,-2.0207,-2.0206,-2.0217,-2.0218,-2.0222,-2.0255,-2.0255,-2.0217,-2.0218,-2.0218,-2.0219,0,0,0,0,0,0,0,-2.0222,-2.0224,-2.0251,-2.0234,-2.0231,-2.0221,-2.0221,-2.0242,-2.0227,-2.0217,-2.0214,-2.0215,-2.0216,-2.0221,-2.0222,-2.0255,-2.0217,-2.0218,-2.0219,-2.022,-2.0324,-2.0325,0,0,0,0,0,0,-2.0224,-2.0224,-2.0251,-2.0251,-2.0222,-2.0223,-2.0223,-2.0231,-2.0227,-2.0224,-2.0216,-2.0213,-2.0219,-2.022,-2.0222,-2.0272,-2.0218,-2.022,-2.0221,-2.0322,-2.0324,-2.0326,0,0,0,0,0,0,-2.0223,-2.0227,-2.0251,-2.0237,-2.0239,-2.0226,-2.0236,-2.0232,-2.0237,-2.0226,-2.0223,-2.0224,-2.0217,-2.0219,-2.0247,-2.0271,-2.0221,-2.0222,-2.032,-2.0323,-2.0325,-2.0373,0,0,0,0,0,0,-2.0222,-2.0227,-2.0243,-2.0238,-2.024,-2.0276,-2.0237,-2.0233,-2.024,-2.0235,-2.0232,-2.023,-2.0216,-2.0245,-2.0249,-2.0273,-2.0223,-2.0317,-2.0321,-2.0324,-2.0369,-2.0377,-2.0383,0,0,0,0,0,-2.0221,-2.0256,-2.0244,-2.0248,-2.026,-2.0278,-2.0279,-2.0263,-2.0242,-2.0258,-2.0251,-2.023,-2.0268,-2.0248,-2.0252,-2.0277,-2.0316,-2.032,-2.0324,-2.0366,-2.0375,-2.0383,0,0,0,0,0,0,-2.0265,-2.0255,-2.0241,-2.0276,-2.0278,-2.0271,-2.0291,-2.0273,-2.0282,-2.0277,-2.0256,-2.0256,-2.0287,-2.0285,-2.0262,-2.0319,-2.0288,-2.0293,-2.0319,-2.0328,-2.0335,-2.0334,-2.0225,0,0,0,0,0,-2.0279,-2.0294,-2.0285,-2.0316,-2.0318,-2.0304,-2.0311,-2.0299,-2.03,-2.0301,-2.0296,-2.0298,-2.031,-2.0319,-2.033,-2.0369,-2.0367,-2.0388,-2.0395,-2.0401,-2.0405,-2.0426,-2.0435,-2.0339,-2.0339,-2.0339,0,0,-2.0307,-2.0304,-2.0314,-2.0325,-2.0325,-2.0341,-2.0305,-2.0324,-2.0336,-2.0303,-2.0329,-2.0326,-2.0327,-2.036,-2.0375,-2.0359,-2.0432,-2.0406,-2.0411,-2.0412,-2.0431,-2.044,-2.0448,-2.0342,-2.0341,-2.0341,0,0,-2.0367,-2.0366,-2.0392,-2.0393,-2.0394,-2.0384,-2.0391,-2.0386,-2.0383,-2.0408,-2.0384,-2.0398,-2.042,-2.0422,-2.0426,-2.0487,-2.0468,-2.0491,-2.0529,-2.0549,-2.0557,-2.0563,-2.0585,-2.0593,-2.0496,-2.0496,-2.0496,0,-2.0402,-2.0425,-2.0407,-2.0428,-2.0433,-2.0405,-2.0431,-2.0433,-2.0437,-2.0441,-2.0424,-2.0451,-2.045,-2.0483,-2.0498,-2.0503,-2.0509,-2.0491,-2.0557,-2.0563,-2.0569,-2.059,-2.0598,-2.0499,-2.0499,-2.0498,-2.0498,0,-2.0469,-2.0485,-2.0506,-2.0511,-2.0519,-2.0542,-2.0528,-2.0537,-2.0524,-2.0517,-2.0543,-2.0541,-2.0551,-2.0558,-2.0546,-2.059,-2.058,-2.0561,-2.053,-2.0581,-2.06,-2.0608,-2.0503,-2.0502,-2.0501,-2.05,0,0,-2.0555,-2.055,-2.0558,-2.056,-2.0559,-2.0572,-2.0594,-2.0604,-2.0612,-2.0617,-2.0635,-2.0654,-2.0636,-2.064,-2.0628,-2.0645,-2.0694,-2.0623,-2.0623,-2.0636,-2.0743,-2.0757,-2.0767,-2.0682,-2.0683,-2.0684,-2.0742,0,-2.0613,-2.065,-2.0635,-2.0674,-2.0689,-2.0663,-2.0682,-2.0683,-2.0677,-2.069,-2.0683,-2.0697,-2.0672,-2.0674,-2.0691,-2.0685,-2.0715,-2.068,-2.0698,-2.0699,-2.0698,-2.0776,-2.0792,-2.0847,-2.075,-2.0751,-2.0752,0,-2.0686,-2.0693,-2.0733,-2.0729,-2.0735,-2.0753,-2.076,-2.0772,-2.0774,-2.0768,-2.0774,-2.0757,-2.0779,-2.0748,-2.0778,-2.0755,-2.0761,-2.0759,-2.0761,-2.0762,-2.0728,-2.0779,-2.0864,-2.0873,-2.0763,-2.0762,-2.0762,0,-2.0745,-2.0765,-2.0791,-2.0793,-2.079,-2.0803,-2.0802,-2.0802,-2.0809,-2.0816,-2.082,-2.0829,-2.0835,-2.0843,-2.0829,-2.0808,-2.0861,-2.0829,-2.0857,-2.0857,-2.0868,-2.0868,-2.0956,-2.0873,-2.0873,-2.0873,-2.0873,0,-2.0811,-2.0837,-2.0817,-2.0834,-2.0862,-2.0844,-2.0872,-2.0868,-2.0869,-2.0884,-2.0862,-2.0877,-2.0858,-2.0871,-2.0861,-2.0887,-2.089,-2.0886,-2.0883,-2.0888,-2.0888,-2.0891,-2.0887,-2.0875,-2.0875,-2.0874,-2.0874,0,-2.0882,-2.087,-2.0897,-2.0891,-2.0891,-2.0912,-2.0907,-2.0922,-2.0914,-2.0934,-2.0938,-2.0926,-2.0941,-2.0928,-2.0942,-2.0935,-2.097,-2.0961,-2.0969,-2.0967,-2.0995,-2.0992,-2.1087,-2.1099,-2.101,-2.101,-2.1011,0,-2.0924,-2.0943,-2.094,-2.0948,-2.0949,-2.0963,-2.097,-2.0953,-2.0962,-2.0965,-2.0979,-2.0992,-2.1001,-2.1025,-2.1018,-2.1029,-2.102,-2.1053,-2.1022,-2.1026,-2.1021,-2.102,-2.1021,-2.1059,-2.106,-2.1061,-2.1062,0,-2.1002,-2.0995,-2.1006,-2.1014,-2.1023,-2.103,-2.1034,-2.1042,-2.1025,-2.1036,-2.105,-2.1057,-2.1071,-2.1084,-2.1092,-2.1092,-2.1074,-2.1072,-2.1079,-2.1084,-2.1087,-2.1086,-2.0986,-2.107,-2.1069,-2.1068,-2.1068,-2.1068,-2.1059,-2.1075,-2.1075,-2.1088,-2.1089,-2.1094,-2.1108,-2.1102,-2.1114,-2.1124,-2.1114,-2.1131,-2.1132,-2.1142,-2.1143,-2.1157,-2.1143,-2.1153,-2.1155,-2.1158,-2.1162,-2.1086,-2.1158,-2.1158,-2.1158,-2.1158,-2.1157,0,-2.1135,-2.1134,-2.1146,-2.1153,-2.1163,-2.1145,-2.115,-2.1159,-2.1175,-2.1177,-2.1187,-2.1203,-2.1215,-2.121,-2.122,-2.1232,-2.1225,-2.1236,-2.1235,-2.1235,-2.1174,-2.1167,-2.1242,-2.1242,-2.1242,-2.1242,-2.1242,-2.1242,-2.1176,-2.1202,-2.1195,-2.1221,-2.122,-2.1236,-2.124,-2.1245,-2.1246,-2.1266,-2.1276,-2.1272,-2.1271,-2.1282,-2.1292,-2.129,-2.1295,-2.1309,-2.1304,-2.1247,-2.1239,-2.1231,-2.1224,-2.131,-2.1311,-2.1364,-2.1365,-2.1365]},{"header":{"parameterUnit":"m.s-1","parameterCategory":1,"la1":30.2991,"la2":30.254,"lo1":-89.0895,"lo2":-89.0444,"dy":0.0017,"dx":0.0017,"nx":28,"ny":28,"refTime":"2023-08-23T09:00:00:Z","depth":0,"parameterNumber":3,"parameterNumberName":"V-component_of_WINDS"},"data":[0,0,0,0,0,0,0,0,0,0,0,0,0,0,0,0,0,0,0,0,0,0,0,0,0,0,0,0,0,0,0,0,0,0,0,0,0,0,0,0,0,0,0,0,0,0,0,0,0,0,0,0,0,0,0,0,0,0,3.3689,3.3689,0,3.3722,3.3723,3.3723,3.369,3.3689,3.3688,3.3686,3.3717,3.3719,3.3721,0,0,0,0,0,0,0,0,0,0,0,0,0,3.3593,3.3595,3.3689,3.3689,3.3689,3.3722,3.3723,3.3723,3.369,3.3689,3.3687,3.3686,3.3717,3.3719,3.3721,0,0,0,0,0,0,0,0,0,0,0,0,0,3.3631,3.3595,3.3688,3.3677,3.3676,3.3722,3.3723,3.3723,3.3691,3.3689,3.3687,3.3685,3.3716,3.3719,3.3722,3.3779,0,0,3.3731,3.3732,0,0,0,0,0,0,0,0,3.3629,3.3635,3.3678,3.3678,3.3677,3.37,3.37,3.3742,3.3691,3.3685,3.3686,3.3684,3.3713,3.3716,3.3727,3.3781,3.3782,3.3731,3.3733,3.3735,3.3735,0,0,0,0,0,0,0,3.3626,3.3633,3.3702,3.3679,3.3678,3.3669,3.3673,3.3708,3.3709,3.3686,3.3683,3.3688,3.3712,3.3724,3.3727,3.3783,3.3731,3.3734,3.3736,3.3737,3.3886,3.3888,0,0,0,0,0,0,3.3625,3.3631,3.3701,3.3703,3.3648,3.3673,3.3676,3.3695,3.3709,3.3709,3.369,3.3686,3.3719,3.3724,3.3728,3.3796,3.3735,3.3737,3.3739,3.3884,3.3887,3.3889,0,0,0,0,0,0,3.3623,3.3632,3.3699,3.3666,3.3674,3.3676,3.3697,3.3696,3.3708,3.3712,3.3712,3.3701,3.3718,3.3724,3.3767,3.3797,3.3739,3.3742,3.3882,3.3885,3.3888,3.3934,0,0,0,0,0,0,3.3621,3.3631,3.3654,3.3667,3.3676,3.3739,3.3699,3.3698,3.3714,3.371,3.3723,3.3723,3.3717,3.3763,3.377,3.38,3.3744,3.3879,3.3883,3.3887,3.393,3.3938,3.3945,0,0,0,0,0,3.3617,3.3664,3.3655,3.3664,3.3705,3.3741,3.3746,3.3739,3.3716,3.3738,3.3741,3.3723,3.3793,3.3768,3.3776,3.3807,3.3877,3.3882,3.3887,3.3926,3.3936,3.3945,0,0,0,0,0,0,3.3653,3.3666,3.3656,3.3709,3.3724,3.3735,3.3763,3.375,3.3771,3.3766,3.3756,3.3759,3.3805,3.381,3.3782,3.3864,3.3831,3.3838,3.3858,3.3868,3.3876,3.3873,3.3746,0,0,0,0,0,3.3667,3.3697,3.3706,3.3752,3.376,3.3761,3.3776,3.377,3.3784,3.379,3.3796,3.3811,3.3836,3.3852,3.3876,3.3931,3.3933,3.3956,3.3964,3.3971,3.3976,3.4005,3.4016,3.3905,3.3905,3.3905,0,0,3.3696,3.3707,3.3726,3.3759,3.377,3.38,3.3766,3.3799,3.382,3.3795,3.3836,3.3842,3.3857,3.3907,3.3929,3.3912,3.4008,3.3977,3.3982,3.3984,3.4012,3.4022,3.4031,3.3908,3.3908,3.3907,0,0,3.3764,3.3776,3.3815,3.3828,3.3846,3.3846,3.3856,3.3869,3.3872,3.3914,3.3896,3.3921,3.3965,3.3977,3.3988,3.4063,3.4047,3.4071,3.4112,3.4141,3.4149,3.4157,3.4183,3.4193,3.4077,3.4077,3.4077,0,3.3797,3.3842,3.3837,3.3871,3.3886,3.3867,3.3906,3.3918,3.3942,3.3953,3.3935,3.399,3.3999,3.4051,3.407,3.408,3.409,3.4069,3.4149,3.4157,3.4164,3.4188,3.4198,3.408,3.4079,3.4079,3.4079,0,3.3882,3.3914,3.3944,3.397,3.3988,3.4025,3.4024,3.4043,3.4036,3.4038,3.4081,3.4091,3.4117,3.4129,3.4121,3.418,3.417,3.4151,3.4117,3.4177,3.42,3.421,3.4084,3.4083,3.4082,3.4081,0,0,3.3971,3.3995,3.4006,3.4018,3.4037,3.4061,3.4097,3.4124,3.414,3.4158,3.4188,3.4226,3.4209,3.4223,3.4216,3.4242,3.43,3.4219,3.422,3.4233,3.4365,3.4379,3.439,3.429,3.4292,3.4293,3.4364,0,3.4039,3.4103,3.41,3.4159,3.4189,3.4171,3.4203,3.4218,3.4221,3.4245,3.4248,3.4276,3.4252,3.426,3.4284,3.4288,3.4326,3.4283,3.4316,3.4317,3.4312,3.4402,3.4416,3.4482,3.4373,3.4374,3.4375,0,3.4127,3.415,3.4213,3.4229,3.4241,3.4269,3.4294,3.4318,3.4334,3.4335,3.4351,3.4341,3.4377,3.4344,3.4393,3.4364,3.4378,3.4382,3.4384,3.4386,3.4349,3.4405,3.4502,3.4512,3.4389,3.4388,3.4387,0,3.4185,3.4231,3.4275,3.4286,3.4306,3.4326,3.4335,3.435,3.4367,3.4388,3.4398,3.4423,3.4436,3.4455,3.4452,3.4428,3.4501,3.4469,3.4502,3.4502,3.4517,3.4516,3.4617,3.4528,3.4527,3.4527,3.4527,0,3.4261,3.4299,3.4302,3.4328,3.4372,3.4367,3.441,3.4416,3.443,3.4457,3.4444,3.4469,3.4464,3.4489,3.4487,3.4528,3.4534,3.4535,3.4533,3.4535,3.4535,3.4543,3.4538,3.453,3.4529,3.4529,3.4528,0,3.4332,3.4335,3.4381,3.4397,3.4402,3.4433,3.4446,3.4472,3.4475,3.4509,3.4517,3.4521,3.4551,3.455,3.4582,3.4581,3.4631,3.4624,3.4625,3.4624,3.4657,3.4654,3.4766,3.478,3.4683,3.4683,3.4684,0,3.4379,3.4409,3.4429,3.4447,3.4458,3.4487,3.4504,3.4502,3.452,3.4542,3.4564,3.4593,3.4615,3.4663,3.4668,3.4693,3.4687,3.4725,3.469,3.4692,3.4687,3.4685,3.4687,3.4731,3.4732,3.4733,3.4734,0,3.4463,3.4464,3.449,3.4517,3.4539,3.456,3.4579,3.4594,3.4593,3.4615,3.4645,3.4663,3.4698,3.4726,3.475,3.4758,3.4746,3.4745,3.4754,3.4755,3.4754,3.4755,3.4643,3.4742,3.4741,3.474,3.474,3.474,3.4523,3.4549,3.4568,3.4598,3.4612,3.4631,3.4656,3.4663,3.4689,3.4717,3.4714,3.4748,3.4765,3.4797,3.4808,3.4834,3.482,3.4833,3.4836,3.4839,3.4843,3.4752,3.4838,3.4838,3.4838,3.4837,3.4837,0,3.4606,3.4617,3.4645,3.4673,3.4697,3.4685,3.4706,3.4726,3.4757,3.4774,3.4797,3.4833,3.4861,3.4869,3.4896,3.4915,3.491,3.4922,3.492,3.4922,3.4853,3.4843,3.4926,3.4926,3.4926,3.4926,3.4926,3.4925,3.4651,3.4695,3.4698,3.4749,3.476,3.4794,3.4807,3.4824,3.4838,3.4879,3.4902,3.4908,3.4922,3.495,3.4975,3.4976,3.4986,3.5001,3.5,3.4935,3.4927,3.4918,3.4908,3.5003,3.5003,3.5066,3.5066,3.5067]}]]